Change the Weather History Date:

Friday, April 11, 2014

  Actual Average Record
Temperature  
Mean Temperature 53 °F 45 °F  
Max Temperature 77 °F 60 °F 78 °F (2003)
Min Temperature 29 °F 31 °F 2 °F (2013)
Degree Days  
Heating Degree Days 12 20  
Month to date heating degree days 218 235  
Since 1 July heating degree days 6184 5919  
Cooling Degree Days 0 0  
Month to date cooling degree days 0 0  
Year to date cooling degree days 0 0  
Growing Degree Days 2 (Base 50)    
Moisture  
Dew Point 31 °F    
Average Humidity 58    
Maximum Humidity 100    
Minimum Humidity 15    
Precipitation  
Precipitation 0.00 in 0.05 in 0.14 in (2001)
Month to date precipitation 0.08 0.45  
Year to date precipitation 1.68 1.80  
Sea Level Pressure  
Sea Level Pressure 29.86 in    
Wind  
Wind Speed 8 mph (West)    
Max Wind Speed 33 mph    
Max Gust Speed 38 mph    
Visibility 9 miles    
Events      
T = Trace of Precipitation, MM = Missing Value Source: NWS Daily Summary

Daily Weather History Graph

Daily Weather History Graph

Search for Another Location

Airport or City:

Trip Planner

Search our weather history database for the weather conditions in past years. The results will help you decide how hot, cold, wet, or windy it might be!

Date:

Astronomy

Apr. 11, 2014 Rise Set
Actual Time 6:22 AM MDT 7:33 PM MDT
Civil Twilight 5:53 AM MDT 8:02 PM MDT
Nautical Twilight 5:19 AM MDT 8:36 PM MDT
Astronomical Twilight 4:43 AM MDT 9:13 PM MDT
Moon 4:13 PM MDT (4/11) 4:22 AM MDT (4/11)
Length of Visible Light 14h 08m
Length of Day
13h 11m
Waxing Gibbous, 87% of the Moon is Illuminated
Apr 11
Waxing Gibbous
Apr 15
Full
Apr 22
Last Quarter
Apr 29
New
May 6
First Quarter

Hourly Weather History & Observations

Time (MDT) Temp. Windchill Dew Point Humidity Pressure Visibility Wind Dir Wind Speed Gust Speed Precip Events Conditions
12:53 AM 37.9 °F 34.4 °F 36.0 °F 93% 29.99 in 10.0 mi North 4.6 mph - N/A   Clear
1:53 AM 37.0 °F 33.3 °F 35.1 °F 93% 30.00 in 10.0 mi West 4.6 mph - N/A   Clear
2:53 AM 32.0 °F 25.6 °F 30.0 °F 92% 30.00 in 10.0 mi North 6.9 mph - N/A   Clear
3:53 AM 34.0 °F 31.0 °F 33.1 °F 96% 29.99 in 10.0 mi NNW 3.5 mph - N/A   Clear
4:53 AM 32.0 °F 28.7 °F 30.9 °F 96% 29.98 in 10.0 mi NNE 3.5 mph - N/A   Clear
5:53 AM 30.0 °F 24.1 °F 28.9 °F 96% 30.00 in 10.0 mi SW 5.8 mph - N/A   Clear
6:06 AM 30.0 °F 24.1 °F 28.9 °F 96% 30.03 in 2.0 mi West 5.8 mph - N/A   Scattered Clouds
6:12 AM 28.9 °F 23.9 °F 28.9 °F 100% 30.02 in 1.0 mi WNW 4.6 mph - N/A   Mist
6:19 AM 30.0 °F 25.2 °F 30.0 °F 100% 30.02 in 2.0 mi NW 4.6 mph - N/A   Partly Cloudy
6:28 AM 30.0 °F - 30.0 °F 100% 30.02 in 10.0 mi Calm Calm - N/A   Partly Cloudy
6:53 AM 30.9 °F 27.5 °F 28.9 °F 92% 30.02 in 10.0 mi NNW 3.5 mph - N/A   Clear
7:53 AM 34.0 °F - 33.1 °F 96% 30.02 in 10.0 mi Calm Calm - N/A   Clear
8:53 AM 42.1 °F - 37.0 °F 82% 30.00 in 10.0 mi Calm Calm - N/A   Clear
9:53 AM 50.0 °F - 39.0 °F 66% 29.97 in 10.0 mi SSE 4.6 mph - N/A   Clear
10:53 AM 57.0 °F - 37.9 °F 49% 29.93 in 10.0 mi South 6.9 mph - N/A   Clear
11:53 AM 63.0 °F - 35.1 °F 35% 29.87 in 10.0 mi SE 9.2 mph - N/A   Clear
12:53 PM 69.1 °F - 30.0 °F 23% 29.81 in 10.0 mi SSW 8.1 mph - N/A   Clear
1:53 PM 72.0 °F - 27.0 °F 19% 29.75 in 10.0 mi SW 17.3 mph 24.2 mph N/A   Clear
2:53 PM 73.9 °F - 27.0 °F 18% 29.72 in 10.0 mi West 21.9 mph 36.8 mph N/A   Partly Cloudy
3:53 PM 75.0 °F - 28.0 °F 18% 29.67 in 10.0 mi West 23.0 mph 33.4 mph N/A   Clear
4:53 PM 77.0 °F - 26.1 °F 15% 29.64 in 10.0 mi WSW 27.6 mph 35.7 mph N/A   Clear
5:53 PM 73.9 °F - 26.1 °F 17% 29.64 in 10.0 mi West 18.4 mph 25.3 mph N/A   Scattered Clouds
6:53 PM 73.0 °F - 28.0 °F 19% 29.64 in 10.0 mi NW 6.9 mph - N/A   Clear
7:53 PM 64.9 °F - 30.0 °F 27% 29.65 in 10.0 mi South 4.6 mph - N/A   Clear
8:53 PM 59.0 °F - 30.9 °F 35% 29.65 in 10.0 mi NE 4.6 mph - N/A   Clear
9:53 PM 57.0 °F - 32.0 °F 39% 29.65 in 10.0 mi North 6.9 mph - N/A   Clear
10:53 PM 55.0 °F - 32.0 °F 42% 29.64 in 10.0 mi Calm Calm - N/A   Clear
11:53 PM 52.0 °F - 33.1 °F 49% 29.63 in 10.0 mi West 5.8 mph - N/A   Clear